Weather Station Data

Station Data Captured at Five Minute Intervals Since Midnight


Date Time Temp. RH % Dew Pt. Wind Speed Wind Dir. Peak Wind Wind Chill Pressure Precip. Solar W/m2 ET
9/23/18 8:30a 57.3 88 53.8 1.0 E 2.0 57.3 30.079 0.00 9 0.000
9/23/18 8:25a 57.4 88 53.9 0.0 E 1.0 57.4 30.082 0.00 8 0.000
9/23/18 8:20a 57.4 88 53.9 1.0 E 2.0 57.4 30.077 0.00 9 0.000
9/23/18 8:15a 57.4 88 53.9 1.0 E 2.0 57.4 30.077 0.00 6 0.000
9/23/18 8:10a 57.5 88 54.0 0.0 E 1.0 57.5 30.082 0.00 1 0.000
9/23/18 8:05a 57.4 87 53.6 0.0 E 2.0 57.4 30.081 0.00 0 0.000
9/23/18 8:00a 57.5 87 53.7 1.0 E 2.0 57.5 30.082 0.00 0 0.000
9/23/18 7:55a 57.5 87 53.7 0.0 E 1.0 57.5 30.077 0.00 0 0.000
9/23/18 7:50a 57.5 87 53.7 1.0 E 2.0 57.5 30.071 0.00 0 0.000
9/23/18 7:45a 57.5 87 53.7 1.0 E 3.0 57.5 30.067 0.00 0 0.000
9/23/18 7:40a 57.5 87 53.7 1.0 E 3.0 57.5 30.067 0.00 0 0.000
9/23/18 7:35a 57.5 87 53.7 1.0 E 3.0 57.5 30.070 0.00 0 0.000
9/23/18 7:30a 57.5 87 53.7 1.0 E 2.0 57.5 30.076 0.00 0 0.000
9/23/18 7:25a 57.5 87 53.7 0.0 E 2.0 57.5 30.081 0.00 0 0.000
9/23/18 7:20a 57.4 87 53.6 1.0 E 2.0 57.4 30.079 0.00 0 0.000
9/23/18 7:15a 57.4 87 53.6 0.0 E 2.0 57.4 30.072 0.00 0 0.000
9/23/18 7:10a 57.4 87 53.6 1.0 E 2.0 57.4 30.068 0.00 0 0.000
9/23/18 7:05a 57.4 87 53.6 1.0 ESE 2.0 57.4 30.067 0.00 0 0.000
9/23/18 7:00a 57.3 87 53.5 0.0 ESE 2.0 57.3 30.072 0.00 0 0.000
9/23/18 6:55a 57.3 87 53.5 1.0 ESE 2.0 57.3 30.075 0.00 0 0.000
9/23/18 6:50a 57.3 87 53.5 1.0 E 3.0 57.3 30.076 0.00 0 0.000
9/23/18 6:45a 57.3 87 53.5 0.0 ESE 2.0 57.3 30.077 0.00 0 0.000
9/23/18 6:40a 57.3 87 53.5 1.0 E 2.0 57.3 30.075 0.00 0 0.000
9/23/18 6:35a 57.3 88 53.8 1.0 E 2.0 57.3 30.077 0.00 0 0.000
9/23/18 6:30a 57.3 88 53.8 1.0 E 2.0 57.3 30.072 0.00 0 0.000
9/23/18 6:25a 57.3 88 53.8 1.0 E 2.0 57.3 30.075 0.00 0 0.000
9/23/18 6:20a 57.3 88 53.8 0.0 E 2.0 57.3 30.073 0.00 0 0.000
9/23/18 6:15a 57.3 87 53.5 1.0 E 3.0 57.3 30.075 0.00 0 0.000
9/23/18 6:10a 57.3 87 53.5 1.0 E 2.0 57.3 30.076 0.00 0 0.000
9/23/18 6:05a 57.3 87 53.5 1.0 E 2.0 57.3 30.075 0.00 0 0.000
9/23/18 6:00a 57.4 87 53.6 1.0 E 3.0 57.4 30.072 0.00 0 0.000
9/23/18 5:55a 57.3 88 53.8 0.0 E 2.0 57.3 30.075 0.00 0 0.000
9/23/18 5:50a 57.3 88 53.8 1.0 E 2.0 57.3 30.073 0.00 0 0.000
9/23/18 5:45a 57.3 88 53.8 0.0 E 1.0 57.3 30.070 0.00 0 0.000
9/23/18 5:40a 57.3 88 53.8 1.0 E 2.0 57.3 30.072 0.00 0 0.000
9/23/18 5:35a 57.2 88 53.7 1.0 E 2.0 57.2 30.073 0.00 0 0.000
9/23/18 5:30a 57.2 88 53.7 1.0 E 2.0 57.2 30.077 0.00 0 0.000
9/23/18 5:25a 57.2 88 53.7 1.0 E 3.0 57.2 30.073 0.00 0 0.000
9/23/18 5:20a 57.2 88 53.7 1.0 E 2.0 57.2 30.074 0.00 0 0.000
9/23/18 5:15a 57.1 88 53.6 1.0 E 2.0 57.1 30.076 0.00 0 0.000
9/23/18 5:10a 57.2 88 53.7 1.0 E 2.0 57.2 30.080 0.00 0 0.000
9/23/18 5:05a 57.1 88 53.6 0.0 E 2.0 57.1 30.085 0.00 0 0.000
9/23/18 5:00a 57.2 88 53.7 0.0 E 1.0 57.2 30.083 0.00 0 0.000
9/23/18 4:55a 57.1 88 53.6 1.0 E 2.0 57.1 30.077 0.00 0 0.000
9/23/18 4:50a 57.1 88 53.6 1.0 E 2.0 57.1 30.079 0.00 0 0.000
9/23/18 4:45a 57.1 88 53.6 1.0 E 2.0 57.1 30.081 0.00 0 0.000
9/23/18 4:40a 57.1 88 53.6 1.0 E 2.0 57.1 30.089 0.00 0 0.000
9/23/18 4:35a 57.1 88 53.6 1.0 E 2.0 57.1 30.090 0.00 0 0.000
9/23/18 4:30a 57.1 88 53.6 1.0 E 2.0 57.1 30.090 0.00 0 0.000
9/23/18 4:25a 57.1 88 53.6 1.0 E 2.0 57.1 30.089 0.00 0 0.000
9/23/18 4:20a 57.1 88 53.6 1.0 E 2.0 57.1 30.087 0.00 0 0.000
9/23/18 4:15a 57.1 88 53.6 1.0 E 3.0 57.1 30.088 0.00 0 0.000
9/23/18 4:10a 57.1 88 53.6 1.0 E 3.0 57.1 30.087 0.00 0 0.000
9/23/18 4:05a 57.2 88 53.7 1.0 E 2.0 57.2 30.086 0.00 0 0.000
9/23/18 4:00a 57.2 88 53.7 1.0 E 2.0 57.2 30.093 0.00 0 0.000
9/23/18 3:55a 57.1 88 53.6 1.0 E 3.0 57.1 30.089 0.00 0 0.000
9/23/18 3:50a 57.2 88 53.7 1.0 E 2.0 57.2 30.097 0.00 0 0.000
9/23/18 3:45a 57.2 88 53.7 1.0 E 2.0 57.2 30.092 0.00 0 0.000
9/23/18 3:40a 57.3 88 53.8 1.0 E 2.0 57.3 30.094 0.00 0 0.000
9/23/18 3:35a 57.3 88 53.8 1.0 E 2.0 57.3 30.099 0.00 0 0.000
9/23/18 3:30a 57.3 88 53.8 1.0 E 2.0 57.3 30.097 0.00 0 0.000
9/23/18 3:25a 57.3 88 53.8 0.0 E 1.0 57.3 30.103 0.00 0 0.000
9/23/18 3:20a 57.3 88 53.8 0.0 E 2.0 57.3 30.099 0.00 0 0.000
9/23/18 3:15a 57.3 88 53.8 0.0 E 1.0 57.3 30.105 0.00 0 0.000
9/23/18 3:10a 57.3 88 53.8 0.0 E 1.0 57.3 30.100 0.00 0 0.000
9/23/18 3:05a 57.3 88 53.8 0.0 E 2.0 57.3 30.105 0.00 0 0.000
9/23/18 3:00a 57.3 88 53.8 1.0 E 2.0 57.3 30.105 0.00 0 0.000
9/23/18 2:55a 57.3 88 53.8 0.0 E 1.0 57.3 30.102 0.00 0 0.000
9/23/18 2:50a 57.3 88 53.8 0.0 E 2.0 57.3 30.106 0.00 0 0.000
9/23/18 2:45a 57.3 88 53.8 0.0 E 2.0 57.3 30.102 0.00 0 0.000
9/23/18 2:40a 57.3 88 53.8 1.0 E 2.0 57.3 30.105 0.00 0 0.000
9/23/18 2:35a 57.4 88 53.9 1.0 E 2.0 57.4 30.109 0.00 0 0.000
9/23/18 2:30a 57.4 88 53.9 1.0 E 2.0 57.4 30.105 0.00 0 0.000
9/23/18 2:25a 57.5 88 54.0 0.0 E 1.0 57.5 30.112 0.00 0 0.000
9/23/18 2:20a 57.5 88 54.0 0.0 E 2.0 57.5 30.110 0.00 0 0.000
9/23/18 2:15a 57.6 88 54.1 0.0 E 1.0 57.6 30.112 0.00 0 0.000
9/23/18 2:10a 57.6 88 54.1 0.0 E 2.0 57.6 30.116 0.00 0 0.000
9/23/18 2:05a 57.7 88 54.2 1.0 E 2.0 57.7 30.114 0.00 0 0.000
9/23/18 2:00a 57.7 88 54.2 1.0 E 2.0 57.7 30.109 0.00 0 0.000
9/23/18 1:55a 57.8 88 54.3 0.0 E 2.0 57.8 30.110 0.00 0 0.000
9/23/18 1:50a 57.9 88 54.4 0.0 E 2.0 57.9 30.115 0.00 0 0.000
9/23/18 1:45a 57.9 88 54.4 1.0 E 2.0 57.9 30.115 0.00 0 0.000
9/23/18 1:40a 57.9 88 54.4 1.0 E 2.0 57.9 30.113 0.00 0 0.000
9/23/18 1:35a 57.9 88 54.4 0.0 E 3.0 57.9 30.116 0.00 0 0.000
9/23/18 1:30a 57.9 88 54.4 0.0 E 2.0 57.9 30.115 0.00 0 0.000
9/23/18 1:25a 57.9 88 54.4 1.0 E 3.0 57.9 30.115 0.00 0 0.000
9/23/18 1:20a 57.9 88 54.4 1.0 E 2.0 57.9 30.116 0.00 0 0.000
9/23/18 1:15a 58.0 88 54.5 1.0 E 2.0 58.0 30.121 0.00 0 0.000
9/23/18 1:10a 58.0 88 54.5 1.0 E 2.0 58.0 30.122 0.00 0 0.000
9/23/18 1:05a 58.0 88 54.5 0.0 E 2.0 58.0 30.122 0.00 0 0.000
9/23/18 1:00a 58.0 89 54.8 1.0 E 2.0 58.0 30.122 0.00 0 0.000
9/23/18 12:55a 58.1 89 54.9 1.0 E 2.0 58.1 30.122 0.00 0 0.000
9/23/18 12:50a 58.1 89 54.9 1.0 E 2.0 58.1 30.128 0.00 0 0.000
9/23/18 12:45a 58.1 89 54.9 1.0 E 2.0 58.1 30.134 0.00 0 0.000
9/23/18 12:40a 58.1 89 54.9 0.0 E 1.0 58.1 30.136 0.00 0 0.000
9/23/18 12:35a 58.1 89 54.9 0.0 E 1.0 58.1 30.138 0.00 0 0.000
9/23/18 12:30a 58.1 89 54.9 0.0 E 1.0 58.1 30.139 0.00 0 0.000
9/23/18 12:25a 58.1 89 54.9 0.0 E 2.0 58.1 30.140 0.00 0 0.000
9/23/18 12:20a 58.1 89 54.9 0.0 E 2.0 58.1 30.139 0.00 0 0.000
9/23/18 12:15a 58.2 89 55.0 1.0 E 2.0 58.2 30.138 0.00 0 0.000
9/23/18 12:10a 58.2 89 55.0 0.0 ESE 2.0 58.2 30.140 0.00 0 0.000
9/23/18 12:05a 58.2 89 55.0 0.0 ESE 2.0 58.2 30.136 0.00 0 0.000
9/23/18 12:00a 58.2 89 55.0 1.0 ESE 2.0 58.2 30.135 0.00 0 0.000

12,174 Page Views